This is the latest recevied weather packets stored in our database for station/object DB0MI. If no packets are shown the sender has not sent any weather packets the latest 10 day(s).
| Time | Temp. | Humidity | Pressure | Rain* | Wind** | Luminosity | Snow |
|---|---|---|---|---|---|---|---|
| 1777738314 | 26.11° C | 30% | 1018.3 hPa | 0 mm | - | - | - |
| 1777737714 | 26.67° C | 30% | 1018.6 hPa | 0 mm | - | - | - |
| 1777737114 | 26.11° C | 30% | 1018.7 hPa | 0 mm | - | - | - |
| 1777736514 | 26.11° C | 30% | 1018.8 hPa | 0 mm | - | - | - |
| 1777735914 | 25.56° C | 30% | 1019 hPa | 0 mm | - | - | - |
| 1777735314 | 25.56° C | 31% | 1019.1 hPa | 0 mm | - | - | - |
| 1777734714 | 25.56° C | 31% | 1019.2 hPa | 0 mm | - | - | - |
| 1777734114 | 25° C | 31% | 1019.3 hPa | 0 mm | - | - | - |
| 1777733514 | 25° C | 32% | 1019.3 hPa | 0 mm | - | - | - |
| 1777732914 | 25° C | 32% | 1019.4 hPa | 0 mm | - | - | - |
| 1777732314 | 25° C | 32% | 1019.6 hPa | 0 mm | - | - | - |
| 1777731714 | 25.56° C | 32% | 1019.8 hPa | 0 mm | - | - | - |
| 1777731114 | 25.56° C | 33% | 1019.9 hPa | 0 mm | - | - | - |
| 1777730514 | 25.56° C | 33% | 1019.9 hPa | 0 mm | - | - | - |
| 1777729914 | 25° C | 33% | 1020 hPa | 0 mm | - | - | - |
| 1777729314 | 25° C | 33% | 1020.1 hPa | 0 mm | - | - | - |
| 1777728714 | 25° C | 35% | 1020.1 hPa | 0 mm | - | - | - |
| 1777728114 | 24.44° C | 36% | 1020.3 hPa | 0 mm | - | - | - |
| 1777727514 | 23.89° C | 36% | 1020.5 hPa | 0 mm | - | - | - |
| 1777726914 | 23.89° C | 37% | 1020.7 hPa | 0 mm | - | - | - |
| 1777726314 | 23.33° C | 37% | 1020.7 hPa | 0 mm | - | - | - |
| 1777725714 | 23.33° C | 34% | 1020.6 hPa | 0 mm | - | - | - |
| 1777725115 | 23.89° C | 36% | 1020.8 hPa | 0 mm | - | - | - |
| 1777724514 | 23.89° C | 36% | 1020.9 hPa | 0 mm | - | - | - |
| 1777723914 | 24.44° C | 34% | 1020.9 hPa | 0 mm | - | - | - |
* Rain latest hour (hover to see other rain measurements)
** Current wind speed in m/s (hover to see current wind gust speed)